Tracking 18840 objects as of 17-November-2017
HD Live streaming from Space Station
objects crossing your sky now

RESURS O1 DEB

Track RESURS O1 DEB now!
10-day predictions


NORAD ID: 23347
Int'l Code: 1994-074F
Perigee: 635.6 km
Apogee: 825.6 km
Inclination: 97.8 °
Period: 99.3 minutes
Semi major axis: 7101 km
RCS: 0.08 m2 (small)
Launch date: November 4, 1994
Source: Commonwealth of Independent States (former USSR) (CIS)
Launch site: TYURATAM MISSILE AND SPACE COMPLEX (TTMTR)

Note: This is SATELLITE DEBRIS
aabbcc
Your satellite tracking list
Your tracking list is empty




NASA's NSSDC Master Catalog

Two Line Element Set (TLE):
1 23347U 94074F   17320.69891358 +.00000124 +00000-0 +38685-4 0  9996
2 23347 097.8047 195.1661 0133746 202.0159 194.3072 14.50671438215034
Source of the keplerian elements: AFSPC